Aérodrome :
LOGIN :

S'inscrire | Disclaimer

   EN    FR    IT 

 










Légende :    VFR   VFR Marginal   IFR   IFR Intensif   IFR Très Intensif
Visi : 
Plafond : 
>= 8 km
>= 3000ft
5 à 8 km
1000 à 3000 ft
1500m à 5 km
500 à 1000 ft
800 à 1500m
200 à 500 ft
< 800m
< 200 ft
Symboles :   Orages  Brouillard  Fortes neiges  Fortes précipitations  Vent > 20 kt
SIGMETs :   Divers  Orages  Givrage  Turbulence  Onde Orograph.  Cendres Volcan.







- Altitude de l'aérodrome : 24 ft
- Code IATA : SGD


EKSB - Sonderborg

DERNIER METAR :
  • 220650Z 34004KT 6000 OVC008 02/01 Q1026

METARs EXPIRÉS :
  • 220620Z 33005KT 6000 OVC008 02/01 Q1026
  • 220550Z 31004KT 6000 OVC010 02/01 Q1026
  • 220521Z 31005KT 6000 OVC010 02/01 Q1026

TAF TAF EKSB
Valide du 22 à 06h jusqu'au 22 à 15h UTC


220552Z 2206/2215 08006KT 6000 BKN010
TEMPO 2206/2213 VRB03KT 2000 BR -SN BKN006
TEMPO 2213/2215 BKN015
Pas de NOTAMs connus pour ce terrain.



MET'MAP, la Météo Aéronautique d'un coup d'oeil ! - Copyright ORBIFLY Décembre 2007 - Disclaimer

ORBIFLY MET'MAP TEAM :

Programmation & Développement : Alexandra Zaïnal
Conception & Développement : Baudouin d'Aumeries
Co-Programmation & Développement : Marc-Olivier Méhu
Soutien technique & logistique : Manuel Goepfert

Contact : metmap@orbifly.com




SOURCES & CREDITS :

   NOAA